Hourly Data Report for May 01, 2012

All times are specified in Local Standard Time (LST). Add 1 hour to adjust for Daylight Saving Time where and when it is observed.

DEER LAKE A
NEWFOUNDLAND

49°12'33.000" N
57°23'40.000" W
21.90 m
8401502
71809
YDF

Download Data

Hourly Data (May 2012)
Hourly Data Report for May 1, 2012
Temp Definition
°C
Dew Point Temp Definition
°C
Rel Hum Definition
%
Wind Dir Definition
10's deg

Wind Spd Definition
km/h
Visibility Definition
km
Stn Press Definition
kPa
Hmdx Definition


Wind Chill Definition


Weather Definition


TIME
00:30 Legend Double Dagger 0.0 -2.7 82 24 11 10.0 101.94   -4 LegendNANA
01:30 Legend Double Dagger 0.2 -3.0 79 24 11 10.0 101.96     LegendNANA
02:30 Legend Double Dagger 0.2 -2.7 81 24 8 10.0 102.00     Cloudy
03:30 Legend Double Dagger 0.2 -2.5 82 25 9 10.0 102.04     LegendNANA
04:30 Legend Double Dagger 0.2 -2.5 82 25 10 10.0 102.08     LegendNANA
05:30 Legend Double Dagger 0.2 -2.4 83 25 14 10.0 102.16     Cloudy
06:30 Legend Double Dagger 0.6 -2.1 82 23 9 10.0 102.22     LegendNANA
07:30 Legend Double Dagger 1.2 -2.0 79 22 13 10.0 102.24     LegendNANA
08:30 Legend Double Dagger 2.1 -2.2 73 20 13 10.0 102.27     Cloudy
09:30 Legend Double Dagger 3.2 -2.8 65 22 7 10.0 102.27     LegendNANA
10:30 Legend Double Dagger 4.9 -3.6 54 13 6 10.0 102.24     LegendNANA
11:30 Legend Double Dagger 5.4 -3.4 53 7 7 10.0 102.20     Cloudy
12:30 Legend Double Dagger 5.8 -3.6 51 2 6 10.0 102.19     LegendNANA
13:30 Legend Double Dagger 6.3 -3.9 48 29 4 10.0 102.16     LegendNANA
14:30 Legend Double Dagger 6.3 -3.9 48 7 9 10.0 102.12     Cloudy
15:30 Legend Double Dagger 6.3 -3.6 49 7 6 10.0 102.12     LegendNANA
16:30 Legend Double Dagger 6.7 -3.3 49 8 8 10.0 102.13     LegendNANA
17:30 Legend Double Dagger 6.5 -3.7 48 5 5 10.0 102.12     Mostly Cloudy
18:30 Legend Double Dagger 5.6 -3.2 53 4 4 10.0 102.14     LegendNANA
19:30 Legend Double Dagger 3.4 -2.6 65 16 4 10.0 102.17     LegendNANA
20:30 Legend Double Dagger 1.5 -3.8 68 1 4 10.0 102.23     Mainly Clear
21:30 Legend Double Dagger 0.1 -4.6 71 4 12 10.0 102.28     LegendNANA
22:30 Legend Double Dagger -1.5 -4.5 80 3 5 10.0 102.31   -3 LegendNANA
23:30 Legend Double Dagger -2.1 -4.6 83   0 10.0 102.29     Clear

Notes on Data Quality.

Legend

  • E = Estimated
  • M = Missing
  • NA = Not Available
  • ‡ = Partner data that is not subject to review by the National Climate Archives
Date modified: